Location: Borovka
(49.7741°N, 14.5280°E)
Time: 17:45:42
(UTC+00:00)

Cosmos 1464 Rocket - Pass Details

Date: 17 November 2025
Orbit: 950 x 1001 km, 82.9° (Epoch: 09 December)

Event Time Altitude Azimuth Distance (km) Brightness Sun altitude
Rises 17:16:02 0° 183° (S) 3,691 7.2 -19.1°
Reaches altitude 10° 17:18:33 10° 182° (S) 2,740 6.4 -19.5°
Maximum altitude 17:24:50 80° 97° (E) 1,000 3.9 -20.5°
Drops below altitude 10° 17:31:04 10° 11° (NNE) 2,723 6.2 -21.6°
Sets 17:33:34 0° 11° (N) 3,667 6.9 -22.0°
